Weather History for KCNC - January, 2013

Change the Weather History Date:

Saturday, January 12, 2013

  Actual Average Record
Temperature  
Mean Temperature 37 °F -  
Max Temperature 55 °F 30 °F 58 °F (1960)
Min Temperature 19 °F 10 °F -22 °F (1974)
Degree Days  
Heating Degree Days 28    
Moisture  
Dew Point 19 °F    
Average Humidity 66    
Maximum Humidity 81    
Minimum Humidity 51    
Precipitation  
Precipitation 0.00 in - - ()
Sea Level Pressure  
Sea Level Pressure 29.98 in    
Wind  
Wind Speed 16 mph (WNW)    
Max Wind Speed 30 mph    
Max Gust Speed 36 mph    
Visibility 10 miles    
Events      
Averages and records for this station are not official NWS values.
T = Trace of Precipitation, MM = Missing Value Source: NWS Daily Summary

Daily Weather History Graph

Daily Weather History Graph

Search for Another Location

Airport or City:

Trip Planner

Search our weather history database for the weather conditions in past years. The results will help you decide how hot, cold, wet, or windy it might be!

Date:

Astronomy

Jan. 12, 2013 Rise Set
Actual Time 7:37 AM CST 5:06 PM CST
Civil Twilight 7:06 AM CST 5:37 PM CST
Nautical Twilight 6:32 AM CST 6:11 PM CST
Astronomical Twilight 5:59 AM CST 6:44 PM CST
Moon 7:55 AM CST (1/12) 6:37 PM CST (1/12)
Length of Visible Light 10h 30m
Length of Day
9h 29m
New Moon, 1% of the Moon is Illuminated
Jan 12
New Moon
Jan 18
First Quarter
Jan 26
Full
Feb 3
Last Quarter
Feb 10
New

Hourly Weather History & Observations

Time (CST) Temp. Windchill Dew Point Humidity Pressure Visibility Wind Dir Wind Speed Gust Speed Precip Events Conditions
12:15 AM 55.4 °F - 44.6 °F 67% 29.62 in 10.0 mi SSW 18.4 mph 23.0 mph N/A   Clear
12:35 AM 55.4 °F - 42.8 °F 63% 29.63 in 10.0 mi SW 18.4 mph 25.3 mph N/A   Clear
12:55 AM 53.6 °F - 35.6 °F 51% 29.65 in 7.0 mi WSW 19.6 mph 28.8 mph N/A   Clear
1:15 AM 51.8 °F - 35.6 °F 54% 29.68 in 7.0 mi West 29.9 mph 35.7 mph N/A   Clear
1:35 AM 42.8 °F 34.5 °F 35.6 °F 76% 29.72 in 7.0 mi West 18.4 mph 26.5 mph N/A   Scattered Clouds
2:15 AM 39.2 °F 29.6 °F 33.8 °F 81% 29.78 in 10.0 mi West 19.6 mph 35.7 mph N/A   Overcast
2:35 AM 37.4 °F 27.8 °F 32.0 °F 81% 29.80 in 10.0 mi West 17.3 mph 25.3 mph N/A   Overcast
2:55 AM 37.4 °F 27.8 °F 30.2 °F 75% 29.81 in 10.0 mi West 17.3 mph 29.9 mph N/A   Overcast
3:15 AM 37.4 °F 26.4 °F 30.2 °F 75% 29.83 in 10.0 mi West 23.0 mph 29.9 mph N/A   Overcast
3:35 AM 35.6 °F 24.8 °F 30.2 °F 81% 29.84 in 10.0 mi West 19.6 mph 27.6 mph N/A   Overcast
3:55 AM 35.6 °F 24.8 °F 28.4 °F 75% 29.84 in 10.0 mi West 19.6 mph 28.8 mph N/A   Mostly Cloudy
4:15 AM 33.8 °F 22.2 °F 24.8 °F 70% 29.86 in 10.0 mi West 20.7 mph 31.1 mph N/A   Scattered Clouds
4:35 AM 30.2 °F 17.1 °F 23.0 °F 75% 29.88 in 10.0 mi West 21.9 mph 29.9 mph N/A   Clear
4:55 AM 30.2 °F 17.1 °F 21.2 °F 69% 29.89 in 10.0 mi West 21.9 mph 29.9 mph N/A   Clear
5:15 AM 30.2 °F 19.3 °F 21.2 °F 69% 29.92 in 10.0 mi West 15.0 mph - N/A   Clear
5:35 AM 28.4 °F 16.2 °F 21.2 °F 74% 29.92 in 10.0 mi West 17.3 mph 23.0 mph N/A   Clear
5:55 AM 28.4 °F 16.2 °F 19.4 °F 69% 29.93 in 10.0 mi West 17.3 mph - N/A   Clear
6:15 AM 28.4 °F 17.0 °F 19.4 °F 69% 29.95 in 10.0 mi West 15.0 mph 20.7 mph N/A   Clear
6:35 AM 26.6 °F 13.8 °F 19.4 °F 74% 29.95 in 10.0 mi West 17.3 mph 21.9 mph N/A   Clear
6:55 AM 26.6 °F 15.7 °F 19.4 °F 74% 29.97 in 10.0 mi WNW 12.7 mph - N/A   Clear
7:15 AM 26.6 °F 18.2 °F 19.4 °F 74% 29.98 in 10.0 mi West 8.1 mph - N/A   Scattered Clouds
7:35 AM 24.8 °F 13.4 °F 17.6 °F 74% 29.99 in 10.0 mi West 12.7 mph - N/A   Scattered Clouds
7:55 AM 24.8 °F 11.5 °F 15.8 °F 69% 30.00 in 10.0 mi WNW 17.3 mph 23.0 mph N/A   Clear
8:15 AM 24.8 °F 13.4 °F 15.8 °F 69% 30.02 in 10.0 mi WNW 12.7 mph 21.9 mph N/A   Clear
8:35 AM 24.8 °F 13.4 °F 15.8 °F 69% 30.02 in 10.0 mi WNW 12.7 mph - N/A   Clear
8:55 AM 26.6 °F 14.3 °F 15.8 °F 64% 30.03 in 10.0 mi WNW 16.1 mph 20.7 mph N/A   Clear
9:15 AM 26.6 °F 15.2 °F 17.6 °F 69% 30.01 in 10.0 mi WNW 13.8 mph 19.6 mph N/A   Clear
9:35 AM 26.6 °F 14.7 °F 17.6 °F 69% 30.03 in 10.0 mi WNW 15.0 mph 19.6 mph N/A   Clear
9:55 AM 26.6 °F 16.8 °F 15.8 °F 64% 30.03 in 10.0 mi WNW 10.4 mph - N/A   Clear
10:15 AM 28.4 °F 17.5 °F 17.6 °F 64% 30.03 in 10.0 mi WNW 13.8 mph - N/A   Clear
10:35 AM 28.4 °F 17.0 °F 17.6 °F 64% 30.04 in 10.0 mi WNW 15.0 mph 20.7 mph N/A   Clear
10:55 AM 30.2 °F 19.8 °F 17.6 °F 60% 30.03 in 10.0 mi WNW 13.8 mph 18.4 mph N/A   Scattered Clouds
11:15 AM 28.4 °F 19.1 °F 17.6 °F 64% 30.04 in 10.0 mi West 10.4 mph - N/A   Mostly Cloudy
11:55 AM 30.2 °F 19.8 °F 19.4 °F 64% 30.05 in 10.0 mi West 13.8 mph - N/A   Scattered Clouds
12:15 PM 28.4 °F 19.1 °F 17.6 °F 64% 30.03 in 10.0 mi West 10.4 mph - N/A   Scattered Clouds
12:35 PM 28.4 °F 18.5 °F 15.8 °F 59% 30.03 in 10.0 mi West 11.5 mph - N/A   Scattered Clouds
12:55 PM 28.4 °F 19.7 °F 15.8 °F 59% 30.02 in 10.0 mi WNW 9.2 mph - N/A   Mostly Cloudy
1:15 PM 28.4 °F 19.7 °F 15.8 °F 59% 30.03 in 10.0 mi WNW 9.2 mph - N/A   Mostly Cloudy
1:35 PM 28.4 °F 19.1 °F 15.8 °F 59% 30.02 in 10.0 mi WNW 10.4 mph - N/A   Mostly Cloudy
1:55 PM 30.2 °F 20.2 °F 15.8 °F 55% 30.02 in 10.0 mi NW 12.7 mph - N/A   Mostly Cloudy
2:15 PM 28.4 °F 18.5 °F 15.8 °F 59% 30.03 in 10.0 mi WNW 11.5 mph - N/A   Scattered Clouds
2:35 PM 28.4 °F 19.1 °F 15.8 °F 59% 30.05 in 10.0 mi NW 10.4 mph - N/A   Scattered Clouds
2:55 PM 26.6 °F 16.8 °F 14.0 °F 59% 30.04 in 10.0 mi NNW 10.4 mph - N/A   Clear
3:15 PM 26.6 °F 18.2 °F 14.0 °F 59% 30.06 in 10.0 mi NW 8.1 mph - N/A   Clear
3:35 PM 26.6 °F 17.5 °F 14.0 °F 59% 30.05 in 10.0 mi NW 9.2 mph - N/A   Clear
3:55 PM 26.6 °F 19.1 °F 15.8 °F 64% 30.05 in 10.0 mi NW 6.9 mph - N/A   Scattered Clouds
4:15 PM 26.6 °F 16.8 °F 14.0 °F 59% 30.03 in 10.0 mi NNW 10.4 mph - N/A   Mostly Cloudy
4:35 PM 26.6 °F 16.8 °F 14.0 °F 59% 30.06 in 10.0 mi NW 10.4 mph - N/A   Mostly Cloudy
4:55 PM 24.8 °F 14.6 °F 14.0 °F 64% 30.03 in 10.0 mi NW 10.4 mph - N/A   Overcast
5:15 PM 24.8 °F 14.0 °F 14.0 °F 64% 30.05 in 10.0 mi WNW 11.5 mph 16.1 mph N/A   Scattered Clouds
5:35 PM 24.8 °F 15.3 °F 14.0 °F 64% 30.04 in 10.0 mi NW 9.2 mph - N/A   Scattered Clouds
5:55 PM 24.8 °F 14.6 °F 15.8 °F 69% 30.05 in 10.0 mi NW 10.4 mph - N/A   Mostly Cloudy
6:15 PM 24.8 °F 15.3 °F 14.0 °F 64% 30.09 in 10.0 mi WNW 9.2 mph - N/A   Overcast
6:35 PM 24.8 °F 14.6 °F 14.0 °F 64% 30.10 in 10.0 mi NW 10.4 mph - N/A   Overcast
6:55 PM 24.8 °F 16.9 °F 14.0 °F 64% 30.10 in 10.0 mi NW 6.9 mph - N/A   Overcast
7:15 PM 24.8 °F 16.1 °F 14.0 °F 64% 30.09 in 10.0 mi NW 8.1 mph - N/A   Scattered Clouds
7:35 PM 24.8 °F 16.1 °F 14.0 °F 64% 30.08 in 10.0 mi NNW 8.1 mph - N/A   Mostly Cloudy
7:55 PM 24.8 °F 13.4 °F 15.8 °F 69% 30.04 in 10.0 mi NNW 12.7 mph - N/A   Mostly Cloudy
8:15 PM 24.8 °F 13.4 °F 15.8 °F 69% 30.05 in 10.0 mi NNW 12.7 mph 20.7 mph N/A   Scattered Clouds
8:35 PM 24.8 °F 12.4 °F 14.0 °F 64% 30.05 in 10.0 mi NNW 15.0 mph - N/A   Mostly Cloudy
8:55 PM 23.0 °F 10.6 °F 14.0 °F 68% 30.05 in 10.0 mi NW 13.8 mph 25.3 mph N/A   Mostly Cloudy
9:15 PM 23.0 °F 10.6 °F 12.2 °F 63% 30.04 in 10.0 mi NNW 13.8 mph 17.3 mph N/A   Mostly Cloudy
9:35 PM 23.0 °F 9.6 °F 12.2 °F 63% 30.04 in 10.0 mi NW 16.1 mph - N/A   Scattered Clouds
9:55 PM 23.0 °F 10.6 °F 12.2 °F 63% 30.05 in 10.0 mi NW 13.8 mph 21.9 mph N/A   Clear
10:15 PM 21.2 °F 8.3 °F 12.2 °F 68% 30.06 in 10.0 mi NW 13.8 mph 18.4 mph N/A   Clear
10:35 PM 21.2 °F 9.5 °F 14.0 °F 74% 30.07 in 10.0 mi NW 11.5 mph 17.3 mph N/A   Scattered Clouds
10:55 PM 21.2 °F 8.3 °F 10.4 °F 63% 30.06 in 10.0 mi NW 13.8 mph 21.9 mph N/A   Overcast
11:15 PM 21.2 °F 7.8 °F 10.4 °F 63% 30.06 in 10.0 mi NW 15.0 mph 19.6 mph N/A   Mostly Cloudy
11:35 PM 19.4 °F 4.5 °F 10.4 °F 68% 30.03 in 10.0 mi NNW 17.3 mph - N/A   Scattered Clouds
11:55 PM 19.4 °F 7.9 °F 10.4 °F 68% 30.04 in 10.0 mi NNW 10.4 mph - N/A   Scattered Clouds